Time,TemperatureF,DewpointF,PressureIn,WindDirection,WindDirectionDegrees,WindSpeedMPH,WindSpeedGustMPH,Humidity,HourlyPrecipIn,Conditions,Clouds,dailyrainin,SolarRadiationWatts/m^2,SoftwareType,DateUTC
2013-10-02 00:00:00,42.0,41.0,-100.00,SE,126,2.0,4.0,94,-99.99,,,-99.99,0.000000,,2013-10-02 07:00:00,
2013-10-02 00:42:00,42.0,41.0,-100.00,SE,126,2.0,4.0,94,-99.99,,,-99.99,0.000000,,2013-10-02 07:42:00,
2013-10-02 00:52:00,42.0,41.0,-100.00,SE,126,2.0,4.0,94,-99.99,,,-99.99,0.000000,,2013-10-02 07:52:00,
2013-10-02 01:00:00,41.0,40.0,-100.00,SW,216,3.0,5.0,95,-99.99,,,-99.99,0.000000,,2013-10-02 08:00:00,
2013-10-02 01:42:00,41.0,40.0,-100.00,SW,216,3.0,5.0,95,-99.99,,,-99.99,0.000000,,2013-10-02 08:42:00,
2013-10-02 01:52:00,41.0,40.0,-100.00,SW,216,3.0,5.0,95,-99.99,,,-99.99,0.000000,,2013-10-02 08:52:00,
2013-10-02 02:00:00,41.0,40.0,-100.00,SE,146,2.0,4.0,95,-99.99,,,-99.99,0.000000,,2013-10-02 09:00:00,
2013-10-02 02:43:00,41.0,40.0,-100.00,SE,146,2.0,4.0,95,-99.99,,,-99.99,0.000000,,2013-10-02 09:43:00,
2013-10-02 02:54:00,41.0,40.0,-100.00,SE,146,2.0,4.0,95,-99.99,,,-99.99,0.000000,,2013-10-02 09:54:00,
2013-10-02 03:00:00,42.0,40.0,-100.00,SSE,158,2.0,5.0,92,-99.99,,,0.02,0.000000,,2013-10-02 10:00:00,
2013-10-02 03:42:00,42.0,40.0,-100.00,SSE,158,2.0,5.0,92,-99.99,,,0.02,0.000000,,2013-10-02 10:42:00,
2013-10-02 03:52:00,42.0,40.0,-100.00,SSE,158,2.0,5.0,92,-99.99,,,0.02,0.000000,,2013-10-02 10:52:00,
2013-10-02 04:00:00,41.0,39.0,-100.00,SSE,165,2.0,4.0,94,-99.99,,,0.02,0.000000,,2013-10-02 11:00:00,
2013-10-02 04:43:00,41.0,39.0,-100.00,SSE,165,2.0,4.0,94,-99.99,,,0.02,0.000000,,2013-10-02 11:43:00,
2013-10-02 04:52:00,41.0,39.0,-100.00,SSE,165,2.0,4.0,94,-99.99,,,0.02,0.000000,,2013-10-02 11:52:00,
2013-10-02 05:00:00,40.0,39.0,-100.00,SE,146,2.0,4.0,95,-99.99,,,0.02,0.000000,,2013-10-02 12:00:00,
2013-10-02 05:42:00,40.0,39.0,-100.00,SE,146,2.0,4.0,95,-99.99,,,0.02,0.000000,,2013-10-02 12:42:00,
2013-10-02 05:52:00,40.0,39.0,-100.00,SE,146,2.0,4.0,95,-99.99,,,0.02,0.000000,,2013-10-02 12:52:00,
2013-10-02 06:00:00,40.0,39.0,-100.00,SSW,193,1.0,3.0,95,-99.99,,,0.02,0.000000,,2013-10-02 13:00:00,
2013-10-02 06:42:00,40.0,39.0,-100.00,SSW,193,1.0,3.0,95,-99.99,,,0.02,0.000000,,2013-10-02 13:42:00,
2013-10-02 06:52:00,40.0,39.0,-100.00,SSW,193,1.0,3.0,95,-99.99,,,0.02,0.000000,,2013-10-02 13:52:00,
2013-10-02 07:00:00,40.0,39.0,-100.00,SE,139,2.0,3.0,94,-99.99,,,0.02,0.460000,,2013-10-02 14:00:00,
2013-10-02 07:42:00,40.0,39.0,-100.00,SE,139,2.0,3.0,94,-99.99,,,0.02,0.460000,,2013-10-02 14:42:00,
2013-10-02 07:52:00,40.0,39.0,-100.00,SE,139,2.0,3.0,94,-99.99,,,0.02,0.460000,,2013-10-02 14:52:00,
2013-10-02 08:00:00,41.0,40.0,-100.00,South,190,2.0,3.0,95,-99.99,,,0.02,49.389999,,2013-10-02 15:00:00,
2013-10-02 08:43:00,41.0,40.0,-100.00,South,190,2.0,3.0,95,-99.99,,,0.02,49.389999,,2013-10-02 15:43:00,
2013-10-02 08:54:00,41.0,40.0,-100.00,South,190,2.0,3.0,95,-99.99,,,0.02,49.389999,,2013-10-02 15:54:00,
2013-10-02 09:00:00,42.0,41.0,-100.00,ESE,110,2.0,3.0,94,-99.99,,,0.01,92.629997,,2013-10-02 16:00:00,
2013-10-02 09:43:00,42.0,41.0,-100.00,ESE,110,2.0,3.0,94,-99.99,,,0.01,92.629997,,2013-10-02 16:43:00,
2013-10-02 09:52:00,42.0,41.0,-100.00,ESE,110,2.0,3.0,94,-99.99,,,0.01,92.629997,,2013-10-02 16:52:00,
2013-10-02 10:00:00,46.0,43.0,-100.00,ESE,120,2.0,4.0,88,-99.99,,,0.01,214.770004,,2013-10-02 17:00:00,
2013-10-02 10:42:00,46.0,43.0,-100.00,ESE,120,2.0,4.0,88,-99.99,,,0.01,214.770004,,2013-10-02 17:42:00,
2013-10-02 10:52:00,46.0,43.0,-100.00,ESE,120,2.0,4.0,88,-99.99,,,0.01,214.770004,,2013-10-02 17:52:00,
2013-10-02 11:00:00,48.0,45.0,-100.00,East,87,1.0,3.0,88,-99.99,,,0.01,175.259995,,2013-10-02 18:00:00,
2013-10-02 11:52:00,48.0,45.0,-100.00,East,87,1.0,3.0,88,-99.99,,,0.01,175.259995,,2013-10-02 18:52:00,
2013-10-02 12:00:00,51.0,45.0,-100.00,SE,136,2.0,6.0,79,-99.99,,,0.00,660.710022,,2013-10-02 19:00:00,
2013-10-02 12:42:00,51.0,45.0,-100.00,SE,136,2.0,6.0,79,-99.99,,,0.00,660.710022,,2013-10-02 19:42:00,
2013-10-02 12:52:00,51.0,45.0,-100.00,SE,136,2.0,6.0,79,-99.99,,,0.00,660.710022,,2013-10-02 19:52:00,
2013-10-02 13:00:00,53.0,45.0,-100.00,ESE,106,2.0,5.0,74,-99.99,,,0.00,467.670013,,2013-10-02 20:00:00,
2013-10-02 13:42:00,53.0,45.0,-100.00,ESE,106,2.0,5.0,74,-99.99,,,0.00,467.670013,,2013-10-02 20:42:00,
2013-10-02 13:52:00,53.0,45.0,-100.00,ESE,106,2.0,5.0,74,-99.99,,,0.00,467.670013,,2013-10-02 20:52:00,
2013-10-02 14:00:00,55.0,44.0,-100.00,WNW,289,5.0,14.0,66,-99.99,,,0.00,422.809998,,2013-10-02 21:00:00,
2013-10-02 14:44:00,55.0,44.0,-100.00,WNW,289,5.0,14.0,66,-99.99,,,0.00,422.809998,,2013-10-02 21:44:00,
2013-10-02 14:54:00,55.0,44.0,-100.00,WNW,289,5.0,14.0,66,-99.99,,,0.00,422.809998,,2013-10-02 21:54:00,
2013-10-02 15:00:00,54.0,43.0,-100.00,WNW,293,6.0,16.0,66,-99.99,,,0.00,259.640015,,2013-10-02 22:00:00,
2013-10-02 15:44:00,54.0,43.0,-100.00,WNW,293,6.0,16.0,66,-99.99,,,0.00,259.640015,,2013-10-02 22:44:00,
2013-10-02 15:53:00,54.0,43.0,-100.00,WNW,293,6.0,16.0,66,-99.99,,,0.00,259.640015,,2013-10-02 22:53:00,
2013-10-02 16:00:00,51.0,42.0,-100.00,WNW,294,9.0,20.0,71,-99.99,,,0.00,96.580002,,2013-10-02 23:00:00,
2013-10-02 16:42:00,51.0,42.0,-100.00,WNW,294,9.0,20.0,71,-99.99,,,0.00,96.580002,,2013-10-02 23:42:00,
2013-10-02 16:52:00,51.0,42.0,-100.00,WNW,294,9.0,20.0,71,-99.99,,,0.00,96.580002,,2013-10-02 23:52:00,
2013-10-02 17:00:00,50.0,43.0,-100.00,WNW,295,6.0,17.0,78,-99.99,,,0.00,84.139999,,2013-10-03 00:00:00,
2013-10-02 17:42:00,50.0,43.0,-100.00,WNW,295,6.0,17.0,78,-99.99,,,0.00,84.139999,,2013-10-03 00:42:00,
2013-10-02 17:52:00,50.0,43.0,-100.00,WNW,295,6.0,17.0,78,-99.99,,,0.00,84.139999,,2013-10-03 00:52:00,
2013-10-02 18:00:00,50.0,44.0,-100.00,WNW,298,5.0,12.0,78,-99.99,,,0.00,44.860001,,2013-10-03 01:00:00,
2013-10-02 18:52:00,50.0,44.0,-100.00,WNW,298,5.0,12.0,78,-99.99,,,0.00,44.860001,,2013-10-03 01:52:00,
2013-10-02 19:00:00,49.0,43.0,-100.00,WNW,301,3.0,10.0,80,-99.99,,,0.00,1.280000,,2013-10-03 02:00:00,
2013-10-02 19:52:00,49.0,43.0,-100.00,WNW,301,3.0,10.0,80,-99.99,,,0.00,1.280000,,2013-10-03 02:52:00,
2013-10-02 20:00:00,49.0,43.0,-100.00,NW,304,4.0,9.0,81,-99.99,,,0.00,0.000000,,2013-10-03 03:00:00,
2013-10-02 20:44:00,49.0,43.0,-100.00,NW,304,4.0,9.0,81,-99.99,,,0.00,0.000000,,2013-10-03 03:44:00,
2013-10-02 20:54:00,49.0,43.0,-100.00,NW,304,4.0,9.0,81,-99.99,,,0.00,0.000000,,2013-10-03 03:54:00,
2013-10-02 21:00:00,48.0,44.0,-100.00,West,263,1.0,4.0,85,-99.99,,,0.00,0.000000,,2013-10-03 04:00:00,
2013-10-02 21:44:00,48.0,44.0,-100.00,West,263,1.0,4.0,85,-99.99,,,0.00,0.000000,,2013-10-03 04:44:00,
2013-10-02 21:53:00,48.0,44.0,-100.00,West,263,1.0,4.0,85,-99.99,,,0.00,0.000000,,2013-10-03 04:53:00,
2013-10-02 22:00:00,48.0,43.0,-100.00,West,275,4.0,9.0,82,-99.99,,,0.00,0.000000,,2013-10-03 05:00:00,
2013-10-02 22:43:00,48.0,43.0,-100.00,West,275,4.0,9.0,82,-99.99,,,0.00,0.000000,,2013-10-03 05:43:00,
2013-10-02 22:52:00,48.0,43.0,-100.00,West,275,4.0,9.0,82,-99.99,,,0.00,0.000000,,2013-10-03 05:52:00,
2013-10-02 23:00:00,47.0,42.0,-100.00,SW,235,2.0,6.0,80,-99.99,,,0.00,0.000000,,2013-10-03 06:00:00,
2013-10-02 23:42:00,47.0,42.0,-100.00,SW,235,2.0,6.0,80,-99.99,,,0.00,0.000000,,2013-10-03 06:42:00,
2013-10-02 23:52:00,47.0,42.0,-100.00,SW,235,2.0,6.0,80,-99.99,,,0.00,0.000000,,2013-10-03 06:52:00,